Time,TemperatureF,DewpointF,PressureIn,WindDirection,WindDirectionDegrees,WindSpeedMPH,WindSpeedGustMPH,Humidity,HourlyPrecipIn,Conditions,Clouds,dailyrainin,SoftwareType,DateUTC
2018-02-21 00:03:00,37.0,37.0,30.23,North,0,0.0,0.0,100,-99.99,,,-99.99,,2018-02-21 08:03:00,
2018-02-21 00:34:00,37.0,37.0,30.25,East,93,0.0,6.0,100,-99.99,,,-99.99,,2018-02-21 08:34:00,
2018-02-21 01:02:00,36.0,36.0,30.26,ESE,120,2.0,7.0,100,-99.99,,,-99.99,,2018-02-21 09:02:00,
2018-02-21 02:02:00,36.0,36.0,30.27,ESE,102,0.0,5.0,100,-99.99,,,-99.99,,2018-02-21 10:02:00,
2018-02-21 02:33:00,35.0,35.0,30.28,North,0,0.0,0.0,100,-99.99,,,-99.99,,2018-02-21 10:33:00,
2018-02-21 03:02:00,34.0,34.0,30.29,North,0,0.0,0.0,100,-99.99,,,-99.99,,2018-02-21 11:02:00,
2018-02-21 03:33:00,34.0,34.0,30.29,North,0,0.0,-999.0,100,-99.99,,,-99.99,,2018-02-21 11:33:00,
2018-02-21 04:03:00,33.0,33.0,30.28,North,0,0.0,0.0,100,-99.99,,,-99.99,,2018-02-21 12:03:00,
2018-02-21 04:33:00,33.0,33.0,30.29,SSE,166,0.0,5.0,100,-99.99,,,-99.99,,2018-02-21 12:33:00,
2018-02-21 05:02:00,33.0,33.0,30.29,North,0,0.0,0.0,100,-99.99,,,-99.99,,2018-02-21 13:02:00,
2018-02-21 05:32:00,32.0,32.0,30.30,North,0,0.0,0.0,100,-99.99,,,-99.99,,2018-02-21 13:32:00,
2018-02-21 06:02:00,33.0,33.0,30.32,North,0,0.0,0.0,100,-99.99,,,-99.99,,2018-02-21 14:02:00,
2018-02-21 06:32:00,33.0,33.0,30.32,North,0,0.0,0.0,100,-99.99,,,-99.99,,2018-02-21 14:32:00,
2018-02-21 07:02:00,32.0,32.0,30.32,North,0,0.0,0.0,100,-99.99,,,-99.99,,2018-02-21 15:02:00,
2018-02-21 07:34:00,32.0,32.0,30.34,North,0,0.0,0.0,100,-99.99,,,-99.99,,2018-02-21 15:34:00,
2018-02-21 08:03:00,32.0,32.0,30.34,North,0,0.0,0.0,100,-99.99,,,-99.99,,2018-02-21 16:03:00,
2018-02-21 08:32:00,33.0,33.0,30.35,ESE,116,0.0,4.0,100,-99.99,,,-99.99,,2018-02-21 16:32:00,
2018-02-21 09:03:00,34.0,34.0,30.35,North,0,0.0,4.0,100,-99.99,,,-99.99,,2018-02-21 17:03:00,
2018-02-21 09:33:00,34.0,34.0,30.36,North,0,0.0,2.0,100,-99.99,,,-99.99,,2018-02-21 17:33:00,
2018-02-21 10:02:00,35.0,35.0,30.37,ESE,105,0.0,2.0,100,-99.99,,,-99.99,,2018-02-21 18:02:00,
2018-02-21 10:32:00,35.0,35.0,30.37,East,91,0.0,4.0,100,-99.99,,,-99.99,,2018-02-21 18:32:00,
2018-02-21 11:02:00,37.0,37.0,30.37,North,0,0.0,0.0,100,-99.99,,,-99.99,,2018-02-21 19:02:00,
2018-02-21 11:33:00,37.0,37.0,30.37,North,0,0.0,0.0,100,-99.99,,,-99.99,,2018-02-21 19:33:00,
2018-02-21 12:02:00,39.0,39.0,30.36,NE,56,1.0,3.0,100,-99.99,,,-99.99,,2018-02-21 20:02:00,
2018-02-21 12:33:00,40.0,40.0,30.37,North,0,0.0,0.0,100,-99.99,,,-99.99,,2018-02-21 20:33:00,
2018-02-21 13:03:00,40.0,40.0,30.35,North,0,0.0,0.0,100,-99.99,,,-99.99,,2018-02-21 21:03:00,
2018-02-21 13:33:00,41.0,41.0,30.36,West,281,0.0,4.0,100,-99.99,,,-99.99,,2018-02-21 21:33:00,
2018-02-21 14:02:00,40.0,39.0,30.35,WNW,291,1.0,7.0,98,-99.99,,,-99.99,,2018-02-21 22:02:00,
2018-02-21 14:33:00,40.0,39.0,30.34,WNW,299,2.0,7.0,98,-99.99,,,-99.99,,2018-02-21 22:33:00,
2018-02-21 15:02:00,41.0,40.0,30.34,WNW,303,0.0,8.0,97,-99.99,,,-99.99,,2018-02-21 23:02:00,
2018-02-21 15:33:00,41.0,40.0,30.35,WNW,299,1.0,7.0,97,-99.99,,,-99.99,,2018-02-21 23:33:00,
2018-02-21 16:02:00,41.0,40.0,30.34,North,0,0.0,3.0,96,-99.99,,,-99.99,,2018-02-22 00:02:00,
2018-02-21 17:02:00,41.0,40.0,30.31,SSW,200,0.0,5.0,97,-99.99,,,-99.99,,2018-02-22 01:02:00,
2018-02-21 17:32:00,40.0,39.0,30.30,North,0,0.0,0.0,97,-99.99,,,-99.99,,2018-02-22 01:32:00,
2018-02-21 18:03:00,39.0,38.0,30.28,North,0,0.0,0.0,97,-99.99,,,-99.99,,2018-02-22 02:03:00,
2018-02-21 18:32:00,39.0,38.0,30.27,SE,137,0.0,4.0,97,-99.99,,,-99.99,,2018-02-22 02:32:00,
2018-02-21 19:02:00,38.0,37.0,30.27,East,96,0.0,5.0,97,-99.99,,,-99.99,,2018-02-22 03:02:00,
2018-02-21 19:33:00,39.0,38.0,30.26,SSE,158,0.0,4.0,98,-99.99,,,-99.99,,2018-02-22 03:33:00,
2018-02-21 20:03:00,38.0,37.0,30.24,SE,137,0.0,7.0,98,-99.99,,,-99.99,,2018-02-22 04:03:00,
2018-02-21 20:32:00,38.0,37.0,30.24,SE,128,0.0,3.0,98,-99.99,,,-99.99,,2018-02-22 04:32:00,
2018-02-21 21:32:00,36.0,36.0,30.22,North,0,0.0,0.0,99,-99.99,,,-99.99,,2018-02-22 05:32:00,
2018-02-21 22:03:00,35.0,35.0,30.20,North,0,0.0,0.0,100,-99.99,,,-99.99,,2018-02-22 06:03:00,
2018-02-21 23:02:00,36.0,36.0,30.18,SE,128,0.0,7.0,100,-99.99,,,-99.99,,2018-02-22 07:02:00,